EW4049 Weather Reports


time (UTC)temp
C
wind
direction
speed
KPH
gust
KPH
rain 1hr
cm
rain 24hr
cm
rain mn
cm
humidity
%
barometer
mb
20260505034516 3 91 0.0 6.4 0.53 0.76 0.64 89 1006.3
20260505033022 3 125 3.2 11.3 0.56 0.71 0.61 88 1005.8
20260505031533 3 140 9.7 19.3 0.46 0.64 0.51 86 1006.3
20260505030007 4 213 4.8 9.7 0.25 0.43 0.30 84 1006.3
20260505024519 5 229 0.0 6.4 0.05 0.23 0.10 82 1005.7
20260505023009 5 207 0.0 11.3 0.00 0.18 0.05 80 1005.3
20260505021513 5 198 1.6 8.0 0.00 0.18 0.05 79 1004.8
20260505020003 5 143 0.0 6.4 0.00 0.18 0.05 79 1004.5
20260505014609 5 116 0.0 3.2 0.00 0.18 0.05 78 1004.4
20260505013052 6 111 0.0 12.9 0.00 0.18 0.05 77 1004.3
20260505011538 6 117 0.0 14.5 0.00 0.18 0.05 75 1004.3
20260505010042 6 155 0.0 6.4 0.03 0.18 0.05 75 1004.2
20260505004546 6 174 0.0 3.2 0.05 0.18 0.05 76 1004.0
20260505003029 6 173 0.0 16.1 0.05 0.18 0.05 77 1004.1
20260505001532 6 224 6.4 16.1 0.05 0.18 0.05 75 1004.3
20260505000039 6 190 6.4 17.7 0.03 0.15 0.03 71 1004.7
20260504234518 7 138 0.0 3.2 0.00 0.13 0.00 62 1004.6
20260504233021 7 56 0.0 4.8 0.00 0.13 0.00 60 1004.3
20260504231516 7 175 0.0 4.8 0.00 0.13 0.00 62 1003.8
20260504230019 8 279 0.0 19.3 0.00 0.13 0.00 62 1003.7
20260504224523 8 309 3.2 19.3 0.03 0.13 0.00 59 1003.3
20260504223014 8 123 8.0 24.1 0.13 0.13 0.00 57 1003.2
20260504221510 8 32 4.8 25.7 0.13 0.13 0.00 59 1003.0
20260504220014 8 138 1.6 20.9 0.13 0.13 0.00 64 1002.4
20260504214502 8 219 1.6 22.5 0.10 0.10 0.10 67 1002.3
20260504213105 13 262 1.6 9.7 0.00 0.00 0.00 50 1002.0
20260504211551 13 88 1.6 9.7 0.00 0.00 0.00 36 1001.9
20260504210047 15 288 3.2 20.9 0.00 0.00 0.00 33 1001.9
20260504204539 15 104 8.0 19.3 0.00 0.00 0.00 34 1002.2
20260504203041 15 348 6.4 16.1 0.00 0.00 0.00 37 1002.6
20260504201535 14 132 0.0 9.7 0.00 0.00 0.00 38 1003.0
20260504200038 13 42 1.6 16.1 0.00 0.00 0.00 41 1003.3
20260504194542 10 77 1.6 12.9 0.00 0.00 0.00 53 1003.7
20260504193036 10 286 6.4 17.7 0.00 0.00 0.00 48 1004.6
20260504191542 11 13 1.6 12.9 0.00 0.00 0.00 45 1003.9
20260504190036 12 244 4.8 16.1 0.00 0.00 0.00 38 1003.4
20260504184530 13 86 11.3 17.7 0.00 0.00 0.00 35 1003.2
20260504183033 12 284 0.0 6.4 0.00 0.00 0.00 38 1003.4
20260504181531 12 291 6.4 25.7 0.00 0.00 0.00 41 1003.4
20260504180018 13 61 8.0 20.9 0.00 0.00 0.00 34 1003.5
20260504174522 13 97 1.6 12.9 0.00 0.00 0.00 34 1003.5
20260504173017 15 32 4.8 16.1 0.00 0.00 0.00 33 1003.6
20260504171508 15 76 3.2 19.3 0.00 0.00 0.00 30 1004.1
20260504081538 2 264 0.0 4.8 0.00 0.00 0.00 55 1005.7
20260504044528 7 299 3.2 6.4 0.00 0.00 0.00 44 1007.6
20260504043050 9 261 0.0 6.4 0.00 0.00 0.00 39 1007.8
20260504041559 8 224 3.2 12.9 0.00 0.00 0.00 37 1007.8
20260504040042 7 273 0.0 6.4 0.00 0.00 0.00 41 1007.9